Regional Weather Roundup
Issued by NWS

Home | Current Version | Previous Version | Graphics & Text | Print | Product List | Glossary On
Versions: 1 2 3 4 5 6 7 8 9 10 11 12 13 14 15 16 17 18 19 20 21 22 23 24 25 26 27 28 29 30 31 32 33 34 35 36 37 38 39 40 41 42 43 44 45 46 47 48 49 50
000
ASUS45 KBOU 302110
RWRCO

WEATHER ROUNDUP FOR COLORADO
NATIONAL WEATHER SERVICE DENVER/BOULDER CO
300 PM MDT THU JUL 30 2015

NOTE: "FAIR" INDICATES FEW OR NO CLOUDS BELOW 12000 FEET WITH NO
SIGNIFICANT WEATHER AND/OR OBSTRUCTIONS TO VISIBILITY.

COZ001>005-013-030-031-302200-
...NORTHWEST COLORADO...

CITY           SKY/WX    TMP DP  RH WIND       PRES   REMARKS
CRAIG          SUNNY     87  20   8 SW6G23    30.36F
HAYDEN         SUNNY     84  23  10 S5        30.38F
MEEKER         SUNNY     87  22   9 S5        30.36F
MOUNT WERNER   NOT AVBL
STEAMBOAT SPGS SUNNY     84  19   9 SW7       30.40F
WALDEN         SUNNY     77  18  10 S9        30.51F
$$

COZ006>008-011-302200-
...WEST CENTRAL VALLEYS...

CITY           SKY/WX    TMP DP  RH WIND       PRES   REMARKS
GRAND JUNCTION SUNNY     92  36  14 W12       30.23F
MONTROSE       SUNNY     90  28  11 NW14      30.31F
EAGLE          SUNNY     86  25  10 SW6       30.38F
RIFLE          SUNNY     91  19   7 CALM      30.28F
DELTA          SUNNY     96  27   8 S10       30.25F
NUCLA          SUNNY     90  32  12 CALM      30.34F
$$

COZ017>023-064>068-302200-
...SOUTHWEST COLORADO...

CITY           SKY/WX    TMP DP  RH WIND       PRES   REMARKS
DURANGO        MOSUNNY   81  47  30 W7        30.36F
CORTEZ         SUNNY     88  45  22 S9        30.31F
PAGOSA SPRINGS MOSUNNY   81  41  24 SE8       30.44F
TELLURIDE      MOSUNNY   78  32  18 N3        30.56F
WOLF CREEK PAS NOT AVBL
$$

COZ009-010-012-014-032>034-037-058>063-302200-
...CENTRAL COLORADO...

CITY           SKY/WX    TMP DP  RH WIND       PRES   REMARKS
ASPEN          SUNNY     82  28  14 N9        30.45F
BUENA VISTA    MOSUNNY   79  30  16 W6        30.46F
COPPER MTN     SUNNY     63  19  19 W18G25    30.81S
BERTHOUD PASS  PTSUNNY   52  41  66 MISG      30.87F
COTTONWOOD PAS PTSUNNY   73  19  13 CALM      30.64S
GUNNISON       MOSUNNY   81  30  16 S6        30.46F
KREMMLING      SUNNY     82   9   6 N6        30.45F
LEADVILLE      PTSUNNY   73  23  15 NW10      30.60F
MONARCH PASS   MOSUNNY   61  32  33 NE12G21   30.90S
SALIDA         NOT AVBL
SUNLIGHT       SUNNY     68  25  19 CALM      30.75F
WILKERSON PASS MOSUNNY   61  32  33 NW3       30.79S
$$

COZ069>075-302200-
...SAN LUIS VALLEY/SANGRE DE CRISTO MOUNTAINS...

CITY           SKY/WX    TMP DP  RH WIND       PRES   REMARKS
ALAMOSA        CLOUDY    75  47  36 E22       30.45S
LA VETA PASS   PTSUNNY   63  45  51 MISG      30.67S
SAGUACHE       MOSUNNY   79  41  25 S8        30.46F
$$

COZ035-036-038>040-302200-
...NORTHERN COLORADO FRONT RANGE...

CITY           SKY/WX    TMP DP  RH WIND       PRES   REMARKS
DENVER INTL AP MOSUNNY   89  39  17 N10G16    30.30F
DMNS CITY PARK   N/A     89  39  17 NE12      30.30F
AURORA         NOT AVBL
FRONT RANGE AP MOSUNNY   88  37  16 NE6       30.32F
ERIE MUNI ARPT SUNNY     90  26  10 CALM      30.28F
BOULDER MUN AP SUNNY     88  36  15 E8        30.30F
CENTENNIAL     MOSUNNY   87  38  17 NE10      30.34F
BROOMFIELD     PTSUNNY   88  37  16 NE12      30.33F
FORT COLLINS   SUNNY     90  48  24 NE12G17   30.26F
LONGMONT       SUNNY     92  36  13 E8        30.30F
$$

COZ041-046-047-076>085-087-088-302200-
...PIKES PEAK/PALMER DIVIDE AND SOUTHERN FOOTHILLS...

CITY           SKY/WX    TMP DP  RH WIND       PRES   REMARKS
COLO. SPRINGS  PTSUNNY   81  48  31 E6        30.37F
A. F. ACADEMY  NOT AVBL
ELLICOTT       MOSUNNY  N/A N/A N/A VRB5G16   30.36F
FALCON         PTSUNNY   80  51  36 E13G18    30.44S
FORT CARSON    NOT AVBL
LIMON          MOSUNNY   86  52  30 SE15      30.32F
MONUMENT HILL  MOSUNNY   79  43  27 E5        30.44F
TRINIDAD       PTSUNNY   82  51  34 E12       30.34F
$$

COZ042>045-048>051-090-091-302200-
...NORTHEAST COLORADO...

CITY           SKY/WX    TMP DP  RH WIND       PRES   REMARKS
GREELEY ARPT   SUNNY     90  39  17 E6        30.27F
AKRON          MOSUNNY   89  57  33 SE17G24   30.26F
BURLINGTON     SUNNY     87  52  29 SE10G20   30.28F
WRAY           MOSUNNY   94  54  26 S12G20    30.23F
STERLING       NOT AVBL
HOLYOKE        NOT AVBL
FORT MORGAN    MOSUNNY   90  50  25 SE3       30.26F
$$

COZ086-089-092>099-302200-
...SOUTHEAST COLORADO...

CITY           SKY/WX    TMP DP  RH WIND       PRES   REMARKS
PUEBLO         MOSUNNY   91  50  24 MISG      30.25F
LA JUNTA       PTSUNNY   89  55  31 SE15      30.24F
LAMAR          PTSUNNY   83  63  50 SE15      30.23F
SPRINGFIELD      N/A     77  64  64 SE12      30.30F
$$


USA.gov is the U.S. government's official web portal to all federal, state and local government web resources and services.